"Period start","avg(HW err(1)/warn(2) (#))","avg(Visibility (m))","avg(Weather code (#))","avg(Precip intensity (mm/h))","min(HW err(1)/warn(2) (#))","max(HW err(1)/warn(2) (#))","std(HW err(1)/warn(2) (#))","med(HW err(1)/warn(2) (#))","min(Visibility (m))","max(Visibility (m))","std(Visibility (m))","med(Visibility (m))","min(Weather code (#))","max(Weather code (#))","std(Weather code (#))","med(Weather code (#))","min(Precip intensity (mm/h))","max(Precip intensity (mm/h))","std(Precip intensity (mm/h))","med(Precip intensity (mm/h))"
2014-06-17 00:00:00,0,43285,0,0.00,0,0,0,0,38309,46621,2415,43306,0,0,0,0,0.00,0.00,0.00,0.00
2014-06-17 00:10:00,0,36395,0,0.00,0,0,0,0,30676,47767,5404,34936,0,0,0,0,0.00,0.00,0.00,0.00
2014-06-17 00:20:00,0,37427,0,0.00,0,0,0,0,32432,43684,3747,36764,0,0,0,0,0.00,0.00,0.00,0.00
2014-06-17 00:30:00,0,33226,0,0.00,0,0,0,0,25517,41630,5388,34806,0,0,0,0,0.00,0.00,0.00,0.00
2014-06-17 00:40:00,0,25571,0,0.00,0,0,0,0,20999,29927,3006,26226,0,0,0,0,0.00,0.00,0.00,0.00
2014-06-17 00:50:00,0,27014,0,0.00,0,0,0,0,23559,30197,1964,27300,0,0,0,0,0.00,0.00,0.00,0.00
2014-06-17 01:00:00,0,24084,0,0.00,0,0,0,0,20094,32015,3176,23454,0,0,0,0,0.00,0.00,0.00,0.00
2014-06-17 01:10:00,0,21551,0,0.00,0,0,0,0,18583,25901,2361,20980,0,0,0,0,0.00,0.00,0.00,0.00
2014-06-17 01:20:00,0,22215,0,0.00,0,0,0,0,20724,25151,1439,21802,0,0,0,0,0.00,0.00,0.00,0.00
2014-06-17 01:30:00,0,21211,0,0.00,0,0,0,0,18284,25815,2232,20991,0,0,0,0,0.00,0.00,0.00,0.00
2014-06-17 01:40:00,0,25368,0,0.00,0,0,0,0,21446,30337,3155,25453,0,0,0,0,0.00,0.00,0.00,0.00
2014-06-17 01:50:00,0,29332,0,0.00,0,0,0,0,25199,35907,3128,28805,0,0,0,0,0.00,0.00,0.00,0.00
2014-06-17 02:00:00,0,30986,0,0.00,0,0,0,0,26032,36675,4230,30080,0,0,0,0,0.00,0.00,0.00,0.00
2014-06-17 02:10:00,0,28545,0,0.00,0,0,0,0,25191,36919,3286,27437,0,0,0,0,0.00,0.00,0.00,0.00
2014-06-17 02:20:00,0,36694,0,0.00,0,0,0,0,25432,43156,6052,38238,0,0,0,0,0.00,0.00,0.00,0.00
2014-06-17 02:30:00,0,35775,0,0.00,0,2,1,0,28741,43605,5097,35653,0,0,0,0,0.00,0.00,0.00,0.00
2014-06-17 02:40:00,1,44712,0,0.00,0,2,1,0,34546,50000,4855,45497,0,0,0,0,0.00,0.00,0.00,0.00
2014-06-17 02:50:00,1,43200,0,0.00,0,2,1,1,31146,48383,5486,45657,0,0,0,0,0.00,0.00,0.00,0.00
2014-06-17 03:00:00,2,41409,0,0.00,0,2,1,2,34585,48008,4779,41932,0,0,0,0,0.00,0.00,0.00,0.00
2014-06-17 03:10:00,1,38802,0,0.00,0,2,1,2,28604,49308,6902,38776,0,0,0,0,0.00,0.00,0.00,0.00
2014-06-17 03:20:00,0,38936,0,0.00,0,0,0,0,32714,47303,4950,38462,0,0,0,0,0.00,0.00,0.00,0.00
2014-06-17 03:30:00,0,40025,0,0.00,0,0,0,0,30164,44841,5217,42760,0,0,0,0,0.00,0.00,0.00,0.00
2014-06-17 03:40:00,0,47303,0,0.00,0,0,0,0,37590,50000,4038,49548,0,0,0,0,0.00,0.00,0.00,0.00
2014-06-17 03:50:00,1,48857,0,0.00,0,2,1,0,44087,50000,1814,49773,0,0,0,0,0.00,0.00,0.00,0.00
2014-06-17 04:00:00,1,48686,0,0.00,0,2,1,2,43293,50000,2039,50000,0,0,0,0,0.00,0.00,0.00,0.00
2014-06-17 04:10:00,2,49770,0,0.00,2,2,0,2,47949,50000,611,50000,0,0,0,0,0.00,0.00,0.00,0.00
2014-06-17 04:20:00,2,49073,0,0.00,0,2,1,2,42087,50000,2364,50000,0,0,0,0,0.00,0.00,0.00,0.00
2014-06-17 04:30:00,1,49514,0,0.00,0,2,1,2,45629,50000,1301,50000,0,0,0,0,0.00,0.00,0.00,0.00
2014-06-17 04:40:00,2,48549,0,0.00,2,2,0,2,44884,50000,1758,49236,0,0,0,0,0.00,0.00,0.00,0.00
2014-06-17 04:50:00,2,45897,0,0.00,2,2,0,2,41247,50000,3238,46732,0,0,0,0,0.00,0.00,0.00,0.00
2014-06-17 05:00:00,0,44146,0,0.00,0,2,1,0,34173,50000,6362,46781,0,0,0,0,0.00,0.00,0.00,0.00
2014-06-17 05:10:00,2,47189,0,0.00,0,2,1,2,42893,50000,2552,46987,0,0,0,0,0.00,0.00,0.00,0.00
2014-06-17 05:20:00,2,48862,0,0.00,2,2,0,2,44415,50000,1932,50000,0,0,0,0,0.00,0.00,0.00,0.00
2014-06-17 05:30:00,2,48360,0,0.00,2,2,0,2,42286,50000,2645,49758,0,0,0,0,0.00,0.00,0.00,0.00
2014-06-17 05:40:00,2,47890,0,0.00,2,2,0,2,44688,50000,1949,47912,0,0,0,0,0.00,0.00,0.00,0.00
2014-06-17 05:50:00,2,48648,0,0.00,2,2,0,2,45475,50000,1703,49598,0,0,0,0,0.00,0.00,0.00,0.00
2014-06-17 06:00:00,2,45245,0,0.00,2,2,0,2,37002,50000,4531,45486,0,0,0,0,0.00,0.00,0.00,0.00
2014-06-17 06:10:00,2,47900,0,0.00,2,2,0,2,42283,50000,2326,48716,0,0,0,0,0.00,0.00,0.00,0.00
2014-06-17 06:20:00,2,49618,0,0.00,2,2,0,2,47101,50000,883,50000,0,0,0,0,0.00,0.00,0.00,0.00
2014-06-17 06:30:00,2,49994,0,0.00,2,2,0,2,49937,50000,19,50000,0,0,0,0,0.00,0.00,0.00,0.00
2014-06-17 06:40:00,2,46762,0,0.00,2,2,0,2,38880,50000,4515,50000,0,0,0,0,0.00,0.00,0.00,0.00
2014-06-17 06:50:00,2,35433,0,0.00,2,2,0,2,22114,50000,8402,34702,0,0,0,0,0.00,0.00,0.00,0.00
2014-06-17 07:00:00,2,44713,0,0.00,2,2,0,2,36894,50000,4521,45322,0,0,0,0,0.00,0.00,0.00,0.00
2014-06-17 07:10:00,2,44681,0,0.00,2,2,0,2,36122,50000,4985,45998,0,0,0,0,0.00,0.00,0.00,0.00
2014-06-17 07:20:00,2,47269,0,0.00,2,2,0,2,40489,50000,2920,48421,0,0,0,0,0.00,0.00,0.00,0.00
2014-06-17 07:30:00,2,42210,0,0.00,2,2,0,2,36518,48969,3860,42124,0,0,0,0,0.00,0.00,0.00,0.00
2014-06-17 07:40:00,2,47247,0,0.00,2,2,0,2,43704,50000,2696,48680,0,0,0,0,0.00,0.00,0.00,0.00
2014-06-17 07:50:00,2,41369,0,0.00,2,2,0,2,31941,50000,7238,42283,0,0,0,0,0.00,0.00,0.00,0.00
2014-06-17 08:00:00,2,35148,0,0.00,2,2,0,2,20462,47547,9207,34978,0,0,0,0,0.00,0.00,0.00,0.00
2014-06-17 08:10:00,2,20849,24,0.19,2,2,0,2,5537,31766,8771,22221,0,52,24,20,0.00,1.75,0.52,0.00
2014-06-17 08:20:00,2,40364,0,0.00,2,2,0,2,31559,50000,6206,40526,0,0,0,0,0.00,0.00,0.00,0.00
2014-06-17 08:30:00,2,42850,0,0.00,2,2,0,2,29499,50000,7840,45398,0,0,0,0,0.00,0.00,0.00,0.00
2014-06-17 08:40:00,2,45434,0,0.00,2,2,0,2,36937,50000,5151,47854,0,0,0,0,0.00,0.00,0.00,0.00
2014-06-17 08:50:00,2,42987,0,0.00,2,2,0,2,32399,50000,6208,43694,0,0,0,0,0.00,0.00,0.00,0.00
2014-06-17 09:00:00,2,49810,0,0.00,2,2,0,2,48557,50000,439,50000,0,0,0,0,0.00,0.00,0.00,0.00
2014-06-17 09:10:00,2,44182,0,0.00,2,2,0,2,37336,50000,3803,43984,0,0,0,0,0.00,0.00,0.00,0.00
2014-06-17 09:20:00,2,48187,0,0.00,2,2,0,2,36360,50000,4164,50000,0,0,0,0,0.00,0.00,0.00,0.00
2014-06-17 09:30:00,2,48530,0,0.00,2,2,0,2,43075,50000,2137,49668,0,0,0,0,0.00,0.00,0.00,0.00
2014-06-17 09:40:00,2,49543,0,0.00,2,2,0,2,45427,50000,1372,50000,0,0,0,0,0.00,0.00,0.00,0.00
2014-06-17 09:50:00,2,49035,0,0.00,2,2,0,2,44426,50000,1610,49615,0,0,0,0,0.00,0.00,0.00,0.00
2014-06-17 10:00:00,2,46077,0,0.00,2,2,0,2,33324,50000,5716,49603,0,0,0,0,0.00,0.00,0.00,0.00
2014-06-17 10:10:00,2,49274,0,0.00,2,2,0,2,46076,50000,1280,50000,0,0,0,0,0.00,0.00,0.00,0.00
2014-06-17 10:20:00,2,49915,0,0.00,2,2,0,2,49151,50000,255,50000,0,0,0,0,0.00,0.00,0.00,0.00
2014-06-17 10:30:00,2,49973,0,0.00,2,2,0,2,49726,50000,82,50000,0,0,0,0,0.00,0.00,0.00,0.00
2014-06-17 10:40:00,2,49636,0,0.00,2,2,0,2,48646,50000,565,50000,0,0,0,0,0.00,0.00,0.00,0.00
2014-06-17 10:50:00,2,48758,0,0.00,2,2,0,2,44408,50000,1805,49893,0,0,0,0,0.00,0.00,0.00,0.00
2014-06-17 11:00:00,2,44956,0,0.00,2,2,0,2,37085,50000,4549,44934,0,0,0,0,0.00,0.00,0.00,0.00
2014-06-17 11:10:00,2,40104,0,0.00,2,2,0,2,19874,50000,9504,41902,0,0,0,0,0.00,0.00,0.00,0.00
2014-06-17 11:20:00,2,37528,0,0.00,2,2,0,2,16935,47691,8458,39936,0,0,0,0,0.00,0.00,0.00,0.00
2014-06-17 11:30:00,2,44374,0,0.00,2,2,0,2,29502,50000,6250,45142,0,0,0,0,0.00,0.00,0.00,0.00
2014-06-17 11:40:00,2,47577,0,0.00,1,2,0,2,35620,50000,4354,49096,0,0,0,0,0.00,0.00,0.00,0.00
2014-06-17 11:50:00,2,44927,0,0.00,1,2,0,2,33166,50000,5737,46690,0,0,0,0,0.00,0.00,0.00,0.00
2014-06-17 12:00:00,2,37578,0,0.00,2,2,0,2,14690,50000,12213,41581,0,0,0,0,0.00,0.00,0.00,0.00
2014-06-17 12:10:00,2,40852,0,0.00,2,2,0,2,31173,50000,6361,42022,0,0,0,0,0.00,0.00,0.00,0.00
2014-06-17 12:20:00,2,49966,0,0.00,2,2,0,2,49660,50000,102,50000,0,0,0,0,0.00,0.00,0.00,0.00
2014-06-17 12:30:00,2,49073,0,0.00,2,2,0,2,46373,50000,1368,50000,0,0,0,0,0.00,0.00,0.00,0.00
2014-06-17 12:40:00,2,48754,0,0.00,2,2,0,2,42753,50000,2159,49989,0,0,0,0,0.00,0.00,0.00,0.00
2014-06-17 12:50:00,2,45917,0,0.00,2,2,0,2,30799,50000,5861,48435,0,0,0,0,0.00,0.00,0.00,0.00
2014-06-17 13:00:00,2,49026,0,0.00,2,2,0,2,44892,50000,1585,50000,0,0,0,0,0.00,0.00,0.00,0.00
2014-06-17 13:10:00,2,49760,0,0.00,2,2,0,2,48702,50000,476,50000,0,0,0,0,0.00,0.00,0.00,0.00
2014-06-17 13:20:00,2,44472,0,0.00,2,2,0,2,36029,50000,4879,46428,0,0,0,0,0.00,0.00,0.00,0.00
2014-06-17 13:30:00,2,49361,0,0.00,2,2,0,2,46143,50000,1189,49936,0,0,0,0,0.00,0.00,0.00,0.00
2014-06-17 13:40:00,2,49893,0,0.00,2,2,0,2,48927,50000,322,50000,0,0,0,0,0.00,0.00,0.00,0.00
2014-06-17 13:50:00,2,50000,0,0.00,2,2,0,2,50000,50000,0,50000,0,0,0,0,0.00,0.00,0.00,0.00
2014-06-17 14:00:00,2,50000,0,0.00,2,2,0,2,50000,50000,0,50000,0,0,0,0,0.00,0.00,0.00,0.00
2014-06-17 14:10:00,2,50000,0,0.00,2,2,0,2,50000,50000,0,50000,0,0,0,0,0.00,0.00,0.00,0.00
2014-06-17 14:20:00,2,49497,0,0.00,2,2,0,2,46385,50000,1087,50000,0,0,0,0,0.00,0.00,0.00,0.00
2014-06-17 14:30:00,2,49957,0,0.00,2,2,0,2,49566,50000,130,50000,0,0,0,0,0.00,0.00,0.00,0.00
2014-06-17 14:40:00,2,50000,0,0.00,2,2,0,2,50000,50000,0,50000,0,0,0,0,0.00,0.00,0.00,0.00
2014-06-17 14:50:00,2,50000,0,0.00,2,2,0,2,50000,50000,0,50000,0,0,0,0,0.00,0.00,0.00,0.00
2014-06-17 15:00:00,2,50000,0,0.00,2,2,0,2,50000,50000,0,50000,0,0,0,0,0.00,0.00,0.00,0.00
2014-06-17 15:10:00,2,49825,0,0.00,2,2,0,2,48905,50000,364,50000,0,0,0,0,0.00,0.00,0.00,0.00
2014-06-17 15:20:00,2,50000,0,0.00,2,2,0,2,50000,50000,0,50000,0,0,0,0,0.00,0.00,0.00,0.00
2014-06-17 15:30:00,2,49698,0,0.00,2,2,0,2,47006,50000,897,50000,0,0,0,0,0.00,0.00,0.00,0.00
2014-06-17 15:40:00,2,49205,0,0.00,2,2,0,2,45924,50000,1591,50000,0,0,0,0,0.00,0.00,0.00,0.00
2014-06-17 15:50:00,2,49865,0,0.00,2,2,0,2,48652,50000,404,50000,0,0,0,0,0.00,0.00,0.00,0.00
2014-06-17 16:00:00,2,49865,0,0.00,2,2,0,2,48651,50000,405,50000,0,0,0,0,0.00,0.00,0.00,0.00
2014-06-17 16:10:00,2,49842,0,0.00,2,2,0,2,48767,50000,373,50000,0,0,0,0,0.00,0.00,0.00,0.00
2014-06-17 16:20:00,2,50000,0,0.00,2,2,0,2,50000,50000,0,50000,0,0,0,0,0.00,0.00,0.00,0.00
2014-06-17 16:30:00,2,49915,0,0.00,2,2,0,2,49147,50000,256,50000,0,0,0,0,0.00,0.00,0.00,0.00
2014-06-17 16:40:00,2,50000,0,0.00,2,2,0,2,50000,50000,0,50000,0,0,0,0,0.00,0.00,0.00,0.00
2014-06-17 16:50:00,2,50000,0,0.00,2,2,0,2,50000,50000,0,50000,0,0,0,0,0.00,0.00,0.00,0.00
2014-06-17 17:00:00,2,49965,0,0.00,2,2,0,2,49649,50000,105,50000,0,0,0,0,0.00,0.00,0.00,0.00
2014-06-17 17:10:00,2,50000,0,0.00,2,2,0,2,50000,50000,0,50000,0,0,0,0,0.00,0.00,0.00,0.00
2014-06-17 17:20:00,2,49841,0,0.00,2,2,0,2,48413,50000,476,50000,0,0,0,0,0.00,0.00,0.00,0.00
2014-06-17 17:30:00,2,50000,0,0.00,2,2,0,2,50000,50000,0,50000,0,0,0,0,0.00,0.00,0.00,0.00
2014-06-17 17:40:00,2,50000,0,0.00,2,2,0,2,50000,50000,0,50000,0,0,0,0,0.00,0.00,0.00,0.00
2014-06-17 17:50:00,2,50000,0,0.00,2,2,0,2,50000,50000,0,50000,0,0,0,0,0.00,0.00,0.00,0.00
2014-06-17 18:00:00,2,50000,0,0.00,2,2,0,2,50000,50000,0,50000,0,0,0,0,0.00,0.00,0.00,0.00
2014-06-17 18:10:00,2,49569,0,0.00,2,2,0,2,45727,50000,1281,50000,0,0,0,0,0.00,0.00,0.00,0.00
2014-06-17 18:20:00,2,49973,0,0.00,2,2,0,2,49726,50000,82,50000,0,0,0,0,0.00,0.00,0.00,0.00
2014-06-17 18:30:00,2,49760,0,0.00,2,2,0,2,47598,50000,721,50000,0,0,0,0,0.00,0.00,0.00,0.00
2014-06-17 18:40:00,2,49819,0,0.00,2,2,0,2,48187,50000,544,50000,0,0,0,0,0.00,0.00,0.00,0.00
2014-06-17 18:50:00,2,49969,0,0.00,2,2,0,2,49739,50000,78,50000,0,0,0,0,0.00,0.00,0.00,0.00
2014-06-17 19:00:00,2,50000,0,0.00,2,2,0,2,50000,50000,0,50000,0,0,0,0,0.00,0.00,0.00,0.00
2014-06-17 19:10:00,2,49318,0,0.00,2,2,0,2,44875,50000,1565,50000,0,0,0,0,0.00,0.00,0.00,0.00
2014-06-17 19:20:00,2,50000,0,0.00,2,2,0,2,50000,50000,0,50000,0,0,0,0,0.00,0.00,0.00,0.00
2014-06-17 19:30:00,2,49915,0,0.00,2,2,0,2,49199,50000,239,50000,0,0,0,0,0.00,0.00,0.00,0.00
2014-06-17 19:40:00,2,49975,0,0.00,2,2,0,2,49748,50000,76,50000,0,0,0,0,0.00,0.00,0.00,0.00
2014-06-17 19:50:00,2,49963,0,0.00,2,2,0,2,49627,50000,112,50000,0,0,0,0,0.00,0.00,0.00,0.00
2014-06-17 20:00:00,2,49852,0,0.00,2,2,0,2,48585,50000,423,50000,0,0,0,0,0.00,0.00,0.00,0.00
2014-06-17 20:10:00,2,45809,0,0.00,2,2,0,2,36803,50000,4495,47056,0,0,0,0,0.00,0.00,0.00,0.00
2014-06-17 20:20:00,2,48556,0,0.00,2,2,0,2,40397,50000,2965,50000,0,0,0,0,0.00,0.00,0.00,0.00
2014-06-17 20:30:00,2,49692,0,0.00,2,2,0,2,48387,50000,617,50000,0,0,0,0,0.00,0.00,0.00,0.00
2014-06-17 20:40:00,2,50000,0,0.00,2,2,0,2,50000,50000,0,50000,0,0,0,0,0.00,0.00,0.00,0.00
2014-06-17 20:50:00,2,49542,0,0.00,2,2,0,2,45415,50000,1376,50000,0,0,0,0,0.00,0.00,0.00,0.00
2014-06-17 21:00:00,2,49251,0,0.00,2,2,0,2,44151,50000,1740,50000,0,0,0,0,0.00,0.00,0.00,0.00
2014-06-17 21:10:00,2,48627,0,0.00,2,2,0,2,41924,50000,2411,50000,0,0,0,0,0.00,0.00,0.00,0.00
2014-06-17 21:20:00,2,48730,0,0.00,2,2,0,2,44206,50000,2020,50000,0,0,0,0,0.00,0.00,0.00,0.00
2014-06-17 21:30:00,2,47386,0,0.00,2,2,0,2,40259,50000,3750,49548,0,0,0,0,0.00,0.00,0.00,0.00
2014-06-17 21:40:00,2,49096,0,0.00,2,2,0,2,43471,50000,2019,50000,0,0,0,0,0.00,0.00,0.00,0.00
2014-06-17 21:50:00,2,47049,0,0.00,2,2,0,2,42681,50000,2982,47905,0,0,0,0,0.00,0.00,0.00,0.00
2014-06-17 22:00:00,2,48733,0,0.00,2,2,0,2,44261,50000,1839,49924,0,0,0,0,0.00,0.00,0.00,0.00
2014-06-17 22:10:00,2,48330,0,0.00,2,2,0,2,43922,50000,2230,49662,0,0,0,0,0.00,0.00,0.00,0.00
2014-06-17 22:20:00,2,49188,0,0.00,2,2,0,2,45043,50000,1532,50000,0,0,0,0,0.00,0.00,0.00,0.00
2014-06-17 22:30:00,2,49347,0,0.00,2,2,0,2,46626,50000,1248,50000,0,0,0,0,0.00,0.00,0.00,0.00
2014-06-17 22:40:00,2,44169,0,0.00,2,2,0,2,39783,50000,3096,42840,0,0,0,0,0.00,0.00,0.00,0.00
2014-06-17 22:50:00,2,47395,0,0.00,2,2,0,2,38152,50000,3594,48822,0,0,0,0,0.00,0.00,0.00,0.00
2014-06-17 23:00:00,2,36833,0,0.00,2,2,0,2,26690,47299,7330,39209,0,0,0,0,0.00,0.00,0.00,0.00
2014-06-17 23:10:00,2,47368,0,0.00,2,2,0,2,40981,50000,3408,49654,0,0,0,0,0.00,0.00,0.00,0.00
2014-06-17 23:20:00,2,46912,0,0.00,2,2,0,2,41429,50000,3109,47864,0,0,0,0,0.00,0.00,0.00,0.00
2014-06-17 23:30:00,2,48008,0,0.00,2,2,0,2,39099,50000,3342,49930,0,0,0,0,0.00,0.00,0.00,0.00
2014-06-17 23:40:00,2,48595,0,0.00,2,2,0,2,43651,50000,2404,50000,0,0,0,0,0.00,0.00,0.00,0.00
2014-06-17 23:50:00,2,47658,0,0.00,2,2,0,2,39746,50000,3649,49736,0,0,0,0,0.00,0.00,0.00,0.00
